Dewpoint
7 6 6 5 4 1 -4 -8 -11 -13 -11 -9 -9 -12 -14 -14 -6 -2 -8 -12 -13 -14 -16 -16 -14 -11 -10 -5 -8 -12 -14 -17 -18 -18 -14 -5 -8 -8 -8 -11 -9 -5 -10 -6 -5 -4 -4
6 6 7 6 7 7 6 5 2 -3 -8 -13 -13 -11 -10 -11 -14 -13 -2 -7 -13 -14 -14 -12 -11 -10 -9 -6 -9 -11 -14 -13 -14 -15 -13 -5 -8 -9 -9 -10 -8 -8 -7 -5 -4 -4 -5
4 5 6 6 6 6 6 6 6 6 5 3 -2 -10 -13 -13 -11 -13 -15 -2 -9 -14 -14 -12 -10 -9 -5 -7 -8 -11 -9 -11 -11 -10 -4 -4 -6 -6 -8 -7 -6 -6 -4 -4 -4 -5 -5
-18 -9 -2 -0 3 4 5 5 5 6 6 6 6 1 -4 -9 -13 -14 -14 -12 -4 -12 -14 -12 -10 -8 -6 -7 -8 -9 -9 -8 -9 -8 -3 -3 -6 -5 -4 -4 -5 -5 -5 -5 -8 -5 -5
-20 -16 -17 -14 -11 -5 -0 2 3 5 5 5 5 5 4 -4 -8 -11 -16 -17 -4 -11 -11 -10 -10 -5 -7 -6 -8 -10 -5 -4 -6 -7 -5 -6 -4 -5 -4 -5 -6 -5 -8 -6 -5 -5 -5
-11 -19 -20 -17 -13 -18 -25 -18 -9 -5 1 1 3 4 5 4 -1 -6 -13 -17 -6 -8 -9 -8 -4 -4 -7 -6 -5 -5 -5 -3 -4 -2 -2 -3 -4 -4 -5 -6 -1 -5 -5 -7 -6 -4 -6
-8 -2 -7 -12 -17 -18 -15 -16 -12 -9 -7 -8 -7 -5 0 2 4 2 -6 -12 -1 -0 -1 -5 -5 -9 -10 -5 -7 -5 -5 -3 -3 -3 -3 -3 -3 -1 -5 -6 -7 -7 -6 -6 -8 -5 -4
-0 -1 -0 -1 -1 -3 -9 -5 -3 -3 -1 -1 -5 -8 -13 -19 -13 4 -4 -1 0 -2 0 -3 -8 -5 -6 -7 -4 -3 -4 -5 -4 -3 -5 -1 1 -5 -7 -6 -6 -6 -5 -6 -7 -4 -4
-0 -0 -0 -0 -1 -1 -1 -1 -2 -1 -1 -1 -0 -3 -4 -4 -28 -5 0 -1 -2 -1 1 -4 -5 -5 -7 -5 -9 -5 -4 -5 -4 -4 -4 -2 -4 -5 -5 -4 -4 -4 -4 -5 -5 -3 -4
-1 0 -1 -1 -1 -1 -2 -2 -2 -1 -1 -0 -0 -2 -7 -5 -5 5 5 1 -2 -1 -1 -5 -4 -4 -6 -5 -6 -8 -5 -5 -4 -4 -4 -3 -5 -4 -3 -2 -4 -4 -7 -5 -4 -2 -0
-1 -1 -2 -2 -2 -1 -2 -1 -2 -2 -2 -3 -2 -4 -6 -7 -1 4 5 4 -3 -0 3 -6 -4 -4 -4 -6 -5 -3 -4 -4 -4 -4 -4 -2 -2 -2 -2 -2 -5 -3 -4 -3 -3 -1 -1
-2 -1 -1 -2 -2 -2 -2 -2 -2 -2 -4 -4 -6 -5 -6 -6 -1 -2 3 5 -1 2 3 -4 -3 -3 -3 -5 -4 -2 -2 -2 -4 -5 -4 -3 -2 -3 -4 -3 -3 -3 -2 -2 -2 -1 5
-2 -2 -1 -3 -2 -2 -2 -1 -2 -2 -2 -5 -6 -9 -9 -6 -2 -1 0 3 3 4 -6 -5 -2 -2 -2 -3 -3 -2 -2 -2 -1 1 1 -3 -1 -3 -3 -1 -2 -2 -1 4 6 7 3
-3 -2 -2 -2 -1 -2 -2 -3 -3 -3 -2 -6 -8 -15 -12 -4 -2 -1 -1 3 5 -2 -3 -3 -2 -2 -1 -3 -3 -2 -1 -0 -3 -3 0 4 5 -1 -3 -2 2 -0 -2 10 7 8 3
-1 -2 -2 -3 -2 -1 -2 -2 -2 -3 -3 -3 -7 -5 -4 -4 -2 -1 2 2 4 -2 -5 -2 -2 -1 -1 -2 -3 -1 -1 -1 -3 -3 -0 3 1 -2 -3 -3 -2 -0 1 -2 2 0 3
-2 -2 -2 -2 -3 -2 -2 -2 -2 -2 -3 -3 -3 -5 -5 1 0 2 1 1 1 -0 -4 -3 -1 -4 -2 -1 -1 -1 -1 -3 -2 -3 -3 -3 1 -1 -2 -3 -2 -1 -3 0 1 7 4
-1 -2 -2 -2 -2 -2 -2 -2 -2 -2 -3 -3 -3 -5 -7 -0 -4 -1 3 1 -6 -2 -2 -1 -1 -3 -2 -0 -1 -1 -3 -3 -3 -3 -3 -3 -2 1 -1 -0 -0 -1 -1 -1 -1 -0 4
-1 -2 -2 -2 -2 -3 -3 -4 -3 -2 -2 -3 -3 -4 -8 -8 -1 -3 1 2 1 -0 1 -1 -1 -1 -1 -1 0 -0 -1 -3 -4 -3 -1 -3 -3 1 1 -2 -3 -2 -2 -2 2 2 2
-2 -2 -2 -2 -4 -2 -1 -2 -2 -3 -2 -2 -2 -6 -7 -6 -1 0 0 -4 1 0 0 3 2 -0 -1 1 2 1 -0 -2 -2 -2 -2 -3 -1 2 2 0 -2 -1 -1 -2 -2 -1 2
-2 -3 -4 -4 -5 -5 -4 -3 -4 -2 -3 -2 -2 -3 -9 -9 -5 -1 -2 -3 -2 -3 1 -0 2 2 4 3 1 2 1 -0 -2 -2 -0 -1 -1 -0 2 0 -0 0 -1 -1 -1 2 1
-4 -4 -4 -4 -4 -4 -5 -4 -4 -3 -2 -2 -3 -4 -8 -5 -7 -5 -5 -3 -0 -0 -2 -0 1 -0 2 5 4 5 2 1 1 -1 -2 -0 2 1 -1 -1 -0 -0 -0 -1 0 -0 2
-4 -5 -4 -3 -3 -3 -4 -3 -1 -3 -2 -2 -3 -4 -4 -5 -7 -9 -10 -8 -7 -2 -5 -3 -1 -2 -1 2 3 4 3 2 2 2 -0 -0 3 1 3 1 1 2 0 -1 -1 -1 -1
-4 -2 -2 -3 -4 -4 -2 -3 -3 -2 -2 -1 -2 -3 -3 -6 -6 -7 -10 -12 -5 -8 -7 -7 -7 -4 -4 -3 2 1 2 2 4 4 4 2 2 3 3 0 3 4 2 1 -0 -1 -1
-4 -5 -4 -5 -8 -9 -6 -4 -4 -3 -2 -1 -2 -2 -3 -5 -7 -7 -10 -11 -10 -12 -8 -10 -8 -7 -7 -6 -1 1 1 2 2 3 3 4 5 5 6 3 6 -1 -2 -1 0 -1 -2
-4 -4 -4 -5 -5 -5 -6 -5 -3 -2 -1 -2 -2 -2 -3 -3 -7 -8 -10 -10 -10 -10 -10 -10 -10 -8 -6 -2 -0 2 4 4 4 4 3 2 4 6 7 5 1 -1 -1 1 2 2 -1
-4 -4 -4 -6 -5 -5 -4 -4 -3 -4 -1 -2 -1 -3 -2 -3 -6 -9 -6 -8 -7 -7 -9 -12 -11 -8 -2 0 2 2 5 5 5 3 2 2 4 6 7 7 7 -0 -3 -2 -1 3 -1
-4 -4 -4 -8 -9 -5 -4 -6 -6 -2 -2 -2 -1 -2 -2 -3 -5 -6 -7 -7 -8 -8 -6 -9 -11 -8 -7 -3 1 1 1 1 6 5 3 3 4 5 6 7 2 -2 -2 -2 2 0 -2
-9 -4 -4 -5 -4 -4 -4 -5 -5 -3 -2 -2 -1 -2 -2 -3 -4 -5 -6 -6 -7 -7 -4 -8 -8 -8 -3 -0 -1 -0 1 1 1 4 2 4 4 5 5 7 6 -2 -2 0 -2 -5 -4
-12 -9 -5 -5 -4 -3 -2 -4 -5 -4 -3 -2 -2 -2 -3 -2 -3 -4 -3 -4 -5 -5 -5 -6 -7 -8 -7 -4 -1 -1 0 -0 1 1 2 5 2 3 3 2 -2 -3 -2 -3 -4 -4 -5
Wind_Speed
18 18 19 20 21 21 21 20 19 21 22 20 17 15 14 13 12 12 14 15 15 15 14 15 15 13 10 11 21 17 8 9 13 15 16 13 13 14 10 9 8 12 14 8 9 7 11
15 18 18 19 19 20 21 21 22 22 21 21 23 24 20 17 14 13 13 14 16 16 15 14 14 13 11 17 15 18 16 15 15 16 17 15 9 16 12 12 13 2 10 11 9 11 9
19 19 19 20 20 21 22 23 23 24 23 23 23 22 24 26 24 18 15 15 13 16 16 15 14 14 15 26 13 14 14 14 15 16 16 18 18 13 10 7 10 6 7 10 14 14 7
22 21 21 22 20 20 22 24 25 25 26 26 26 25 23 23 25 29 25 18 15 14 17 15 14 11 14 15 16 26 20 15 15 16 16 14 16 12 8 4 5 7 6 9 7 14 6
26 26 28 28 26 23 22 24 24 25 28 28 29 30 28 25 24 24 26 27 17 14 16 15 11 10 13 16 22 23 18 13 12 12 14 14 12 10 6 9 9 10 13 15 8 15 7
28 29 31 29 29 31 31 31 30 28 28 30 31 33 35 32 26 26 25 22 19 13 15 12 12 6 19 12 13 18 19 16 9 11 8 11 11 10 12 12 12 12 17 13 12 11 16
31 29 29 29 31 32 30 29 29 28 28 31 33 35 36 37 31 27 27 17 5 6 15 15 15 14 4 13 11 13 20 18 11 15 12 19 11 16 23 22 20 10 14 16 8 7 10
27 27 28 29 29 27 25 28 29 28 29 30 30 32 34 38 36 28 18 7 10 11 13 24 37 27 14 11 9 14 18 16 16 18 17 9 20 21 15 16 20 20 17 19 14 7 7
24 24 25 26 29 29 30 29 31 30 30 31 30 32 33 33 29 20 12 10 11 11 11 21 29 28 28 23 24 21 28 18 15 19 21 23 10 11 20 16 17 19 20 16 16 1 13
26 25 27 29 28 29 31 32 29 31 31 30 32 32 30 32 16 10 12 12 12 7 6 10 9 15 25 16 12 29 35 19 13 20 22 17 24 8 14 21 17 19 16 16 12 5 8
27 28 29 28 30 30 30 31 32 33 33 36 31 30 30 22 24 17 12 14 9 0 6 6 10 6 10 23 11 15 26 23 21 14 16 12 10 14 19 17 15 9 3 9 10 11 13
29 28 30 31 28 29 29 30 31 32 33 38 33 31 29 26 17 23 22 13 6 6 11 7 5 7 9 24 10 10 20 13 12 17 16 18 2 10 8 4 9 13 8 6 4 5 8
30 31 28 31 29 29 29 31 33 34 36 37 37 33 32 26 26 16 19 25 6 10 10 16 8 9 17 15 15 13 20 22 16 12 20 18 12 5 10 8 7 12 9 4 5 5 9
31 29 30 30 29 32 33 32 33 33 35 38 40 41 32 25 21 18 14 10 16 19 31 3 5 7 11 12 15 16 17 19 27 20 7 15 10 18 15 14 10 22 16 5 8 7 9
29 31 31 33 32 32 32 32 32 33 34 38 43 37 26 20 15 11 11 10 7 24 25 22 22 17 13 14 6 17 22 21 21 26 14 13 14 9 14 6 15 8 14 13 16 6 5
32 32 32 33 34 34 33 34 33 34 37 35 37 36 20 7 11 11 10 21 18 25 27 10 22 17 21 13 12 15 14 15 20 25 22 11 8 7 5 4 6 8 12 7 6 6 14
34 35 35 35 35 34 33 32 31 31 34 33 24 19 10 13 23 9 7 9 22 34 36 22 19 15 9 5 13 13 8 7 23 19 24 18 11 6 7 15 18 7 8 8 5 9 8
36 36 36 37 37 37 35 34 32 30 30 25 14 8 18 26 10 5 6 9 17 25 40 18 14 16 17 9 4 13 13 14 13 12 19 27 11 11 11 3 12 19 17 20 8 11 6
38 39 41 40 39 38 38 36 33 28 24 24 12 24 14 16 6 6 6 14 7 12 11 4 7 16 21 10 7 8 12 9 4 8 12 14 10 11 5 2 2 10 20 20 19 13 13
41 43 42 41 41 39 37 36 33 29 23 18 8 5 20 15 8 9 16 14 17 15 6 18 8 13 9 10 15 7 7 1 6 8 23 8 7 17 14 8 9 10 19 23 21 11 15
44 43 43 42 39 40 40 36 33 28 24 18 7 6 9 8 12 15 15 17 16 10 7 15 8 19 9 5 15 19 21 20 12 3 3 7 9 13 18 5 6 5 12 20 24 26 19
44 44 43 43 43 43 40 36 35 29 27 21 7 6 5 20 22 15 14 14 21 12 14 11 14 18 18 9 10 10 17 17 16 3 2 2 8 8 5 11 10 12 11 13 20 22 22
43 44 43 42 42 41 39 35 33 30 26 21 15 14 9 14 13 13 12 13 15 19 5 21 21 17 16 19 19 27 26 22 6 7 10 7 8 5 10 8 4 11 18 19 14 14 18
42 41 41 44 44 41 36 35 33 30 28 30 26 11 6 10 12 13 16 17 16 17 20 22 23 17 22 28 26 26 29 23 15 12 11 6 6 7 6 6 9 12 2 17 22 20 19
38 38 41 46 44 37 34 34 34 31 30 27 25 20 12 8 17 19 19 17 19 17 18 22 26 22 23 16 9 8 4 5 15 19 18 14 6 4 5 12 15 15 5 6 11 15 19
36 38 39 42 43 36 32 33 29 34 25 35 29 25 14 5 15 22 16 18 14 14 14 18 24 25 15 5 5 4 4 5 7 5 9 13 12 4 3 6 10 13 7 13 7 12 8
34 36 38 40 39 36 34 35 34 32 20 11 19 20 24 7 25 22 16 15 17 13 11 16 18 19 15 2 6 5 7 5 4 12 7 8 4 12 11 5 8 4 10 13 7 12 8
36 36 38 39 39 39 35 34 36 29 21 14 20 27 20 8 30 23 26 24 19 20 12 19 14 6 5 5 4 5 5 6 7 7 5 11 9 7 6 5 11 8 6 10 5 1 3
37 38 39 40 41 37 35 33 31 30 23 16 21 21 20 23 22 14 18 22 27 29 27 20 16 18 7 5 5 4 9 4 4 5 7 2 2 3 8 6 9 12 7 17 5 3 3
Wind_Direction
12 8 6 3 1 358 353 350 346 343 345 347 349 346 344 341 338 325 307 291 278 267 263 263 263 267 265 245 251 259 231 227 227 225 218 206 214 223 239 239 226 241 256 248 245 233 229
350 353 348 347 349 351 349 345 343 341 337 334 334 334 335 334 327 320 314 295 281 269 262 255 259 262 250 252 252 257 243 231 224 219 218 211 223 226 282 241 225 287 246 240 231 222 219
338 339 347 347 344 338 332 330 332 335 336 335 330 323 323 324 326 321 312 300 272 268 257 254 251 262 249 241 257 259 240 232 221 212 209 211 221 200 218 214 219 218 234 219 227 218 227
340 334 327 325 328 334 344 338 328 326 324 325 324 320 318 317 317 318 317 305 277 256 253 247 249 257 255 250 239 248 247 241 227 218 207 214 209 217 225 152 186 223 232 240 191 191 200
345 344 340 338 335 328 327 332 332 335 327 321 319 316 314 310 313 313 312 312 288 256 250 233 248 238 261 246 233 234 219 222 218 214 208 204 184 215 182 213 229 212 252 225 218 195 176
360 353 354 353 347 341 336 328 328 325 323 315 317 317 312 306 307 312 312 310 298 278 243 233 228 242 238 230 212 202 204 192 186 182 165 184 196 209 213 209 224 235 226 252 237 192 214
0 359 356 352 350 348 346 341 337 331 322 319 316 309 312 310 306 313 316 326 323 267 229 216 204 204 272 208 210 203 198 177 182 197 207 201 211 214 216 218 238 285 279 249 252 114 213
359 357 356 355 353 350 343 342 339 336 333 328 321 318 314 306 306 315 317 318 317 298 287 263 254 243 227 211 195 195 183 180 192 209 213 187 233 231 238 233 232 239 255 256 263 148 217
357 356 353 350 348 348 347 346 341 340 336 329 325 319 319 320 307 305 312 319 315 302 262 272 245 239 226 216 226 209 184 201 203 211 213 223 233 230 229 225 228 232 237 250 257 133 235
352 349 345 346 345 344 343 340 340 335 332 330 325 319 321 323 321 298 307 309 321 335 274 256 208 238 211 207 232 216 202 184 213 221 215 233 247 209 211 226 215 240 231 245 263 234 263
348 342 341 339 339 341 340 339 336 335 334 331 322 319 316 320 304 297 287 305 288 68 264 274 175 201 184 192 135 190 199 209 218 203 199 212 199 205 221 224 214 247 160 202 226 244 271
344 344 340 342 342 341 339 338 339 339 335 329 319 314 315 312 288 288 288 301 167 210 234 234 169 203 178 213 194 129 175 209 225 232 220 246 25 209 215 99 219 134 121 126 193 249 249
340 338 337 333 333 329 330 333 336 337 334 335 333 315 305 306 280 280 294 301 195 217 226 246 221 190 218 198 205 184 181 192 188 193 216 216 210 160 163 123 142 184 175 208 224 209 252
341 336 332 334 328 329 330 328 327 329 329 333 333 327 311 295 288 274 267 271 229 202 220 66 92 236 221 200 217 209 182 197 212 218 219 208 214 183 190 202 178 197 197 190 227 217 238
332 330 331 329 328 324 326 326 329 329 331 330 329 328 310 306 292 259 236 242 258 229 223 223 260 232 231 224 257 200 222 214 202 210 207 202 224 147 192 177 171 179 220 243 267 282 271
332 333 332 327 325 325 319 321 322 326 328 330 330 326 317 325 331 260 224 238 248 266 254 231 237 219 231 219 199 196 210 225 215 203 215 221 223 194 153 168 234 220 158 187 219 231 249
331 328 325 322 321 319 319 322 322 324 323 330 329 325 315 323 322 289 256 249 252 257 262 271 261 243 222 291 211 202 241 230 210 205 201 225 232 135 157 205 191 183 198 217 258 218 246
326 325 323 322 321 320 319 317 317 321 322 329 315 298 302 315 300 236 277 341 334 323 295 259 271 274 257 203 285 265 244 259 206 167 200 211 225 213 200 103 248 221 216 209 228 206 229
327 325 324 321 320 319 316 314 313 313 320 317 294 297 304 301 287 317 331 328 268 308 326 272 248 233 252 250 244 246 285 25 337 217 190 173 219 216 186 188 205 221 217 226 231 256 249
325 325 324 322 321 318 314 310 307 305 302 302 283 301 312 307 287 338 337 325 319 331 315 330 296 270 281 260 236 250 216 89 61 321 339 268 242 212 218 228 147 196 209 212 219 223 233
327 326 326 323 319 317 313 307 306 298 289 277 245 255 288 289 307 318 303 316 314 339 321 24 14 7 353 289 229 233 250 268 280 328 307 286 245 223 249 254 195 208 208 212 215 228 234
330 328 326 324 321 318 313 311 300 299 286 255 219 250 260 280 289 296 302 291 302 331 330 318 347 336 336 316 293 315 263 238 245 154 269 269 277 256 246 250 236 249 235 230 229 234 248
332 334 330 326 323 319 314 314 305 294 278 257 232 241 245 272 281 288 292 303 304 312 330 326 319 313 315 313 311 306 292 278 250 213 224 243 244 247 255 232 210 255 233 233 224 218 229
335 335 335 333 327 322 319 315 310 294 276 254 232 211 202 261 269 275 289 299 296 299 299 305 300 308 293 305 298 288 266 245 222 190 181 193 218 249 241 165 237 244 4 223 221 232 222
338 341 340 343 340 331 326 322 319 307 290 261 235 216 204 244 265 277 285 299 300 301 300 297 296 301 304 300 296 308 231 186 209 203 203 202 176 238 237 219 258 270 214 169 201 239 233
344 342 340 345 350 347 341 337 326 327 292 272 239 234 221 228 251 269 279 288 295 297 300 319 310 321 318 282 238 269 299 201 187 186 207 204 211 196 207 236 215 253 252 180 162 260 203
344 345 347 347 346 347 345 345 341 324 305 270 256 253 218 221 258 257 257 276 298 296 301 314 319 312 296 257 277 277 265 305 273 180 169 182 186 213 213 249 256 264 128 122 193 269 196
344 342 342 343 341 343 342 343 344 341 319 285 264 257 222 237 258 252 260 265 271 265 273 291 317 273 286 244 247 285 275 32 303 326 178 177 180 199 210 222 251 126 118 212 291 67 115
343 340 340 343 343 339 335 340 339 345 333 298 263 259 261 235 258 257 259 256 250 259 268 273 255 285 307 307 320 335 307 286 291 312 354 298 289 284 209 210 255 184 238 231 265 313 250
Height
1559 1556 1553 1549 1546 1543 1539 1536 1533 1530 1526 1521 1516 1512 1508 1506 1503 1501 1499 1495 1495 1495 1494 1494 1494 1494 1495 1495 1485 1480 1479 1481 1482 1482 1483 1485 1487 1488 1485 1483 1485 1487 1481 1484 1484 1486 1486
1559 1556 1553 1550 1547 1543 1540 1536 1532 1528 1525 1522 1519 1515 1509 1503 1500 1498 1494 1492 1491 1490 1490 1490 1490 1490 1491 1490 1482 1479 1478 1477 1478 1479 1480 1483 1483 1484 1483 1482 1484 1479 1481 1483 1484 1484 1484
1558 1555 1551 1548 1545 1542 1539 1535 1531 1527 1523 1519 1516 1512 1509 1506 1501 1494 1491 1488 1485 1486 1486 1486 1486 1486 1484 1476 1476 1476 1476 1476 1475 1477 1481 1482 1485 1486 1483 1483 1483 1483 1483 1481 1479 1480 1480
1557 1554 1550 1547 1544 1541 1537 1533 1529 1524 1520 1517 1513 1509 1505 1501 1499 1496 1490 1484 1482 1480 1481 1482 1484 1483 1475 1467 1470 1470 1472 1474 1474 1474 1476 1479 1480 1483 1481 1481 1480 1479 1478 1472 1457 1473 1477
1556 1552 1547 1544 1541 1538 1535 1530 1526 1522 1517 1513 1509 1505 1501 1498 1495 1490 1488 1485 1479 1476 1476 1476 1480 1482 1470 1461 1461 1462 1467 1471 1472 1473 1473 1475 1478 1478 1479 1475 1473 1470 1463 1459 1461 1466 1469
1556 1552 1548 1544 1539 1535 1530 1526 1522 1520 1516 1510 1506 1502 1498 1495 1491 1488 1484 1480 1478 1476 1474 1474 1474 1480 1462 1456 1455 1457 1460 1466 1470 1473 1474 1474 1474 1471 1469 1468 1465 1458 1460 1454 1453 1460 1464
1556 1552 1547 1542 1537 1533 1529 1524 1519 1515 1511 1506 1502 1498 1494 1489 1488 1485 1481 1480 1476 1476 1472 1458 1452 1446 1448 1451 1453 1454 1455 1461 1466 1469 1466 1468 1466 1456 1450 1452 1448 1450 1448 1447 1442 1456 1463
1557 1552 1547 1542 1537 1532 1527 1522 1516 1512 1507 1503 1498 1493 1489 1485 1483 1483 1480 1480 1480 1476 1462 1454 1450 1447 1445 1446 1449 1450 1454 1456 1458 1457 1459 1463 1455 1446 1445 1447 1450 1449 1454 1448 1443 1456 1463
1554 1550 1545 1540 1535 1529 1525 1521 1516 1510 1504 1499 1495 1490 1485 1480 1479 1476 1477 1477 1473 1472 1464 1439 1438 1436 1438 1439 1436 1440 1445 1447 1446 1448 1446 1446 1438 1441 1444 1447 1448 1447 1448 1447 1448 1456 1457
1551 1547 1543 1538 1533 1528 1523 1518 1513 1508 1502 1496 1491 1486 1482 1477 1478 1472 1473 1471 1471 1470 1461 1428 1427 1420 1428 1431 1425 1430 1432 1438 1441 1437 1439 1440 1437 1441 1439 1443 1446 1446 1439 1445 1450 1460 1454
1551 1547 1542 1537 1532 1526 1522 1515 1510 1505 1499 1493 1487 1482 1478 1479 1475 1473 1472 1468 1467 1469 1464 1410 1415 1415 1416 1419 1410 1418 1425 1433 1428 1432 1432 1428 1432 1437 1438 1435 1439 1443 1444 1446 1450 1453 1450
1550 1545 1540 1535 1530 1525 1520 1513 1507 1502 1496 1490 1483 1478 1475 1472 1470 1468 1466 1464 1462 1465 1448 1409 1412 1414 1416 1413 1411 1415 1420 1426 1427 1426 1428 1425 1434 1432 1430 1439 1437 1447 1449 1452 1453 1450 1456
1548 1543 1537 1532 1527 1521 1517 1512 1508 1502 1496 1488 1480 1475 1471 1468 1461 1463 1463 1462 1454 1440 1420 1400 1405 1408 1410 1409 1409 1406 1406 1414 1416 1432 1425 1424 1429 1431 1433 1440 1444 1442 1445 1450 1456 1460 1436
1545 1540 1536 1531 1526 1521 1515 1510 1504 1498 1493 1485 1476 1468 1462 1461 1458 1460 1460 1459 1424 1403 1408 1398 1402 1408 1407 1400 1401 1405 1403 1404 1406 1405 1405 1417 1422 1421 1423 1418 1430 1435 1428 1434 1437 1431 1412
1543 1538 1532 1526 1522 1517 1512 1506 1500 1494 1490 1482 1472 1463 1457 1455 1453 1455 1457 1452 1422 1399 1389 1393 1398 1400 1400 1394 1395 1399 1395 1390 1387 1392 1401 1403 1405 1406 1416 1415 1416 1428 1428 1418 1420 1421 1430
1542 1537 1530 1524 1519 1514 1509 1504 1499 1493 1486 1481 1472 1461 1454 1451 1449 1448 1446 1436 1418 1407 1395 1389 1387 1379 1386 1388 1397 1393 1387 1376 1379 1381 1386 1381 1394 1412 1418 1422 1421 1416 1411 1426 1426 1429 1416
1537 1532 1526 1520 1514 1509 1504 1501 1494 1489 1484 1480 1474 1464 1455 1451 1448 1446 1434 1426 1413 1409 1403 1395 1390 1378 1378 1385 1385 1385 1372 1369 1371 1370 1380 1381 1383 1416 1419 1411 1403 1418 1411 1412 1404 1400 1400
1534 1527 1521 1515 1510 1504 1498 1495 1490 1486 1483 1478 1475 1466 1455 1451 1447 1437 1432 1431 1424 1416 1405 1391 1390 1386 1375 1381 1387 1382 1377 1367 1368 1370 1374 1373 1376 1384 1399 1399 1398 1394 1395 1397 1398 1398 1399
1528 1522 1516 1509 1503 1499 1495 1490 1486 1483 1481 1477 1472 1462 1454 1452 1445 1436 1434 1432 1429 1420 1415 1394 1394 1385 1381 1383 1388 1382 1377 1379 1379 1376 1369 1371 1377 1381 1395 1403 1404 1397 1389 1385 1385 1383 1389
1523 1517 1510 1503 1496 1491 1487 1483 1479 1478 1477 1475 1471 1460 1451 1447 1444 1445 1439 1427 1423 1419 1414 1409 1399 1391 1391 1387 1382 1379 1378 1381 1379 1386 1383 1375 1360 1360 1362 1359 1366 1387 1385 1382 1384 1385 1384
1518 1509 1502 1496 1490 1484 1477 1474 1472 1470 1468 1467 1466 1457 1454 1446 1440 1443 1440 1435 1426 1420 1417 1412 1404 1408 1402 1389 1382 1381 1379 1379 1374 1382 1386 1385 1367 1358 1354 1355 1367 1368 1371 1375 1379 1372 1374
1511 1502 1496 1489 1481 1475 1470 1466 1462 1461 1460 1457 1456 1455 1452 1446 1443 1438 1435 1430 1424 1422 1418 1414 1414 1413 1411 1401 1397 1391 1378 1374 1376 1386 1390 1386 1377 1363 1366 1362 1367 1370 1367 1366 1369 1371 1371
1504 1497 1489 1481 1475 1468 1461 1457 1454 1452 1451 1446 1444 1448 1449 1442 1438 1436 1428 1423 1422 1419 1413 1415 1411 1406 1403 1403 1397 1392 1387 1383 1377 1377 1385 1387 1381 1373 1363 1357 1369 1370 1361 1361 1363 1362 1363
1498 1491 1483 1473 1464 1458 1452 1448 1444 1442 1440 1436 1433 1440 1442 1437 1433 1428 1426 1426 1423 1420 1414 1414 1410 1404 1398 1394 1390 1381 1373 1373 1372 1375 1379 1384 1386 1378 1366 1364 1368 1340 1345 1343 1348 1349 1352
1495 1487 1479 1468 1457 1450 1446 1441 1436 1432 1429 1428 1425 1430 1434 1431 1429 1422 1422 1419 1419 1415 1413 1407 1405 1401 1396 1392 1389 1377 1362 1364 1361 1364 1370 1370 1374 1372 1365 1354 1340 1337 1344 1346 1350 1344 1342
1492 1485 1475 1468 1458 1448 1442 1436 1430 1425 1420 1415 1417 1422 1425 1427 1420 1422 1421 1418 1415 1410 1407 1406 1401 1399 1395 1391 1382 1375 1350 1342 1351 1359 1362 1365 1366 1371 1365 1352 1343 1321 1328 1335 1346 1343 1334
1487 1480 1473 1464 1457 1448 1440 1433 1425 1419 1410 1413 1414 1417 1416 1420 1413 1417 1414 1413 1414 1411 1407 1404 1399 1396 1392 1386 1381 1373 1364 1354 1338 1338 1353 1358 1362 1359 1355 1350 1332 1318 1331 1337 1346 1322 1322
1484 1477 1470 1463 1455 1447 1440 1432 1424 1418 1414 1413 1411 1409 1413 1413 1405 1410 1409 1411 1410 1409 1407 1404 1403 1389 1387 1382 1372 1365 1356 1363 1361 1343 1341 1340 1349 1348 1353 1346 1340 1324 1333 1333 1325 1324 1327
1481 1472 1466 1459 1452 1445 1438 1431 1424 1418 1413 1410 1407 1408 1410 1410 1401 1400 1400 1400 1401 1402 1404 1402 1402 1398 1395 1390 1386 1384 1376 1371 1362 1356 1352 1339 1334 1333 1333 1324 1317 1320 1320 1322 1325 1330 1329